Skip to main content

Search Topomaps Inventory

This database allows you to search for topographic maps by quadrangle (map name). It includes information such as the year of publication, scale, USGS number, latitude and longitude etc. Search terms may be entered in lower case or upper case. Truncation is automatic, so typing "new brun" will retrieve records for "new brunswick".

Enter a search using the text field and options below. Click the Search button to run the query.
Columns can be sorted by clicking on the column name (e.g. Map Name).

Map Name Year Location Scale SE Latitude SE Longitude Map Type Sort descending
DECEPTION PASS, WA 1978 LSM - 1st floor 1:50,000 N481500 W1223000 TOPOGRAPHICAL METRIC
TUSKEGEE, AL 1981 LSM - 1st floor 1:100,000 N320000 W0850000 TOPOGRAPHICAL METRIC
MORIAH, IL 1998 LSM - 1st floor 1:25,000 N390730 W0875230 TOPOGRAPHICAL METRIC
VINCENNES, IN 1986 LSM - 1st floor 1:100,000 N383000 W0870000 TOPOGRAPHICAL METRIC
TEMPLE, TX 1976 LSM - 1st floor 1:50,000 N310000 W0971500 TOPOGRAPHICAL METRIC
NEWAYGO, MI 1985 LSM - 1st floor 1:25,000 N432230 W0854500 TOPOGRAPHICAL METRIC
DEADMANS HILL, MI 1986 LSM - 1st floor 1:25,000 N450000 W0845230 TOPOGRAPHICAL METRIC
BAR HARBOR, ME 1991 LSM - 1st floor 1:100,000 N440000 W0680000 TOPOGRAPHICAL METRIC
BETHEL, ME 1986 LSM - 1st floor 1:50,000 N441500 W0704500 TOPOGRAPHICAL METRIC
CAIN CITY, TX 1979 LSM - 1st floor 1:50,000 N300000 W0984500 TOPOGRAPHICAL METRIC
KINNEY RIM, WY 1980 LSM - 1st floor 1:100,000 N410000 W1080000 TOPOGRAPHICAL METRIC
SHOT POINT, MI 1985 LSM - 1st floor 1:25,000 N463000 W0870330 TOPOGRAPHICAL METRIC
WINSTON, MO 1984 LSM - 1st floor 1:25,000 N394500 W0940730 TOPOGRAPHICAL METRIC
LAKE WALCOTT, ID 1993 LSM - 1st floor 1:100,000 N42300 N1130000 TOPOGRAPHICAL METRIC
SODA LAKE NORTH, CA 1983 LSM - 1st floor 1:25,000 N350730 W1160000 TOPOGRAPHICAL METRIC
MEDINA LAKE, TX 1979 LSM - 1st floor 1:50,000 N293000 W0984500 TOPOGRAPHICAL METRIC
OAKLAND, IL 1998 LSM - 1st floor 1:25,000 N393730 W0880000 TOPOGRAPHICAL METRIC
MT VERNON, MO 1989 LSM - 1st floor 1:50,000 N370000 W0934500 TOPOGRAPHICAL METRIC
WATTERSON CANYON, CA 1994 LSM - 1st floor 1:25,000 N373730 W1183730 TOPOGRAPHICAL METRIC
PACOLET, SC 1983 LSM - 1st floor 1:25,000 N345230 W0814500 TOPOGRAPHICAL METRIC
WHITE HILL, SD 1983 LSM - 1st floor 1:25,000 N453000 W1025230 TOPOGRAPHICAL METRIC
ALBERT LEA, MN 1992 LSM - 1st floor 1:100,000 N433000 W0930000 TOPOGRAPHICAL METRIC
HUTCHINSON, KS 1985 LSM - 1st floor 1:100,000 N380000 W0970000 TOPOGRAPHICAL METRIC
HALLORAN SPRING, CA 1983 LSM - 1st floor 1:50,000 N351500 W1154500 TOPOGRAPHICAL METRIC
JASPER, IN 1994 LSM - 1st floor 1:100,000 N380000 W0860000 TOPOGRAPHICAL METRIC
HURLEY, MS 1985 LSM - 1st floor 1:50,000 N303000 W0881500 TOPOGRAPHICAL METRIC
WINNSBORO, SC 1983 LSM - 1st floor 1:50,000 N341500 W0810000 TOPOGRAPHICAL METRIC
HURLEY PEAK, WA 1982 LSM - 1st floor 1:25,000 N485230 W1194500 TOPOGRAPHICAL METRIC
ROSEAU, MN 1991 LSM - 1st floor 1:100,000 N483000 W0950000 TOPOGRAPHICAL METRIC
FORT OGLETHORPE, GA 1982 LSM - 1st floor 1:25,000 N345230 W0851500 TOPOGRAPHICAL METRIC
JUNCTION CITY, KS 1989 LSM - 1st floor 1:25,000 N390000 W0964500 TOPOGRAPHICAL METRIC
EMERSON LAKE, CA 1981 LSM - 1st floor 1:50,000 N341500 W1161500 TOPOGRAPHICAL METRIC
GOOD HARBOR BAY, MI 1983 LSM - 1st floor 1:25,000 N445230 W0854500 TOPOGRAPHICAL METRIC
GALESBURG, MI 1986 LSM - 1st floor 1:50,000 N421500 W0851500 TOPOGRAPHICAL METRIC
PHILLIPS CROSSROADS, NC 1997 LSM - 1st floor 1:25,000 N350000 W0772230 TOPOGRAPHICAL METRIC
CEDAR CITY, UT 1982 LSM - 1st floor 1:100,000 N373000 W1130000 TOPOGRAPHICAL METRIC
FESTUS, MO 1985 LSM - 1st floor 1:100,000 N380000 W0900000 TOPOGRAPHICAL METRIC
HARLAN, IA 1980 LSM - 1st floor 1:100,000 N413000 W0950000 TOPOGRAPHICAL METRIC
CADIZ LAKE NE, CA 1985 LSM - 1st floor 1:25,000 N342230 W1151500 TOPOGRAPHICAL METRIC
PRAIRIE CITY, SD 1983 LSM - 1st floor 1:25,000 N453000 W1024500 TOPOGRAPHICAL METRIC
MANISTEE, MI 1983 LSM - 1st floor 1:100,000 N440000 W0860000 TOPOGRAPHICAL METRIC
HIGH ROCK CANYON, NV 1981 LSM - 1st floor 1:100,000 N410000 W1190000 TOPOGRAPHICAL METRIC
CHANCHELULLA PEAK, CA 1981 LSM - 1st floor 1:25,000 N402230 W1224500 TOPOGRAPHICAL METRIC
MEDICINE BOW, WY 1980 LSM - 1st floor 1:100,000 N413000 W1060000 TOPOGRAPHICAL METRIC
SALINAS PEAK, NM 1978 LSM - 1st floor 1:50,000 N331500 W1063000 TOPOGRAPHICAL METRIC
HESPERIA, MI 1985 LSM - 1st floor 1:25,000 N433000 W0860000 TOPOGRAPHICAL METRIC
ST MARYS, KS 1981 LSM - 1st floor 1:50,000 N390000 W0960000 TOPOGRAPHICAL METRIC
OPELIKA, AL 1978 LSM - 1st floor 1:100,000 N323000 W0850000 TOPOGRAPHICAL METRIC
ANCHORAGE C-8 NW, AK 1990 LSM - 1st floor 1:25,000 N613730 W1494840 TOPOGRAPHICAL METRIC
BIG PRAIRIE, MI 1985 LSM - 1st floor 1:25,000 N433000 W0853730 TOPOGRAPHICAL METRIC
PARK FALLS, WI 1980 LSM - 1st floor 1:100,000 N453000 W0900000 TOPOGRAPHICAL METRIC
BADNATION SE, SD 1982 LSM - 1st floor 1:25,000 N433000 W1001500 TOPOGRAPHICAL METRIC
TEMPLE, TX 1985 LSM - 1st floor 1:100,000 N310000 W0970000 TOPOGRAPHICAL METRIC
ANCHORAGE C-8 SE, AK 1992 LSM - 1st floor 1:25,000 N613000 W1493730 TOPOGRAPHICAL METRIC
BIG RAPIDS, MI 1985 LSM - 1st floor 1:25,000 N433730 W0852230 TOPOGRAPHICAL METRIC
BAGNELL, MO 1983 LSM - 1st floor 1:25,000 N380730 W0923000 TOPOGRAPHICAL METRIC
TERRE HAUTE, IN 1986 LSM - 1st floor 1:100,000 N390000 W0870000 TOPOGRAPHICAL METRIC
LEWISBURG, WV 1984 LSM - 1st floor 1:100,000 N373000 W0800000 TOPOGRAPHICAL METRIC
REIDVILLE, SC 1983 LSM - 1st floor 1:25,000 N344500 W0820000 TOPOGRAPHICAL METRIC
SAN JUAN, PR 1977 LSM - 1st floor 1:25,000 N182230 W0660000 TOPOGRAPHICAL METRIC
LAGUNA, NM 1987 LSM - 1st floor 1:50,000 N350000 W1071500 TOPOGRAPHICAL METRIC
MAHANOY CITY, PA 1984 LSM - 1st floor 1:50,000 N404500 W0760000 TOPOGRAPHICAL METRIC
BLACK RIVER FALLS, WI 1985 LSM - 1st floor 1:100,000 N440000 W0900000 TOPOGRAPHICAL METRIC
PITTSBURGH EAST, PA 1986 LSM - 1st floor 1:100,000 N400000 W0790000 TOPOGRAPHICAL METRIC
COMMERCE, GA 1979 LSM - 1st floor 1:100,000 N340000 W0830000 TOPOGRAPHICAL METRIC
ENSIGN, MI 1985 LSM - 1st floor 1:25,000 N455230 W0864500 TOPOGRAPHICAL METRIC
IKPIKPUK RIVER D-1, AK 1984 LSM - 1st floor 1:63,360 N694500 W1530000 TOPOGRAPHICAL METRIC
FERRY, MI 1985 LSM - 1st floor 1:25,000 N433000 W0860730 TOPOGRAPHICAL METRIC
KENAI D-1 NE, AK 1986 LSM - 1st floor 1:25,000 N605230 W1500000 TOPOGRAPHICAL METRIC
MAYFIELD, MI 1983 LSM - 1st floor 1:25,000 N443730 W0853000 TOPOGRAPHICAL METRIC
SORUM SW, SD 1983 LSM - 1st floor 1:25,000 N451500 W1025230 TOPOGRAPHICAL METRIC
FREMONT, NE 1982 LSM - 1st floor 1:100,000 N410000 W0960000 TOPOGRAPHICAL METRIC
MILLERTON, MI 1987 LSM - 1st floor 1:25,000 N440000 W0860000 TOPOGRAPHICAL METRIC
STEPLADDER MTS NE, CA 1985 LSM - 1st floor 1:25,000 N343730 W1144500 TOPOGRAPHICAL METRIC
GLENNS FERRY, ID 1992 LSM - 1st floor 1:100,000 N423000 W1150000 TOPOGRAPHICAL METRIC
COLFAX, IL 1986 LSM - 1st floor 1:25,000 N403000 W0883000 TOPOGRAPHICAL METRIC
TAYLORS, SC 1983 LSM - 1st floor 1:25,000 N345230 W0821500 TOPOGRAPHICAL METRIC
TROUT CREEK, MI 1982 LSM - 1st floor 1:25,000 N462230 W0890000 TOPOGRAPHICAL METRIC
SPEARMAN, TX 1986 LSM - 1st floor 1:100,000 N360000 W1010000 TOPOGRAPHICAL METRIC
PAPAALOA, HI 1981 LSM - 1st floor 1:50,000 N195210 W1545950 TOPOGRAPHICAL METRIC
REDONDO PEAK, NM 1987 LSM - 1st floor 1:50,000 N354500 W1063000 TOPOGRAPHICAL METRIC
KILLIK RIVER C-3, AK 1986 LSM - 1st floor 1:63,360 N683000 W1541200 TOPOGRAPHICAL METRIC
WENDOVER, UT 1985 LSM - 1st floor 1:100,000 N403000 W1140000 TOPOGRAPHICAL METRIC
CABEZA PRIETA MTS, AZ 1980 LSM - 1st floor 1:100,000 N320000 W1130000 TOPOGRAPHICAL METRIC
WINIFRED, MT 1984 LSM - 1st floor 1:100,000 N473000 W1090000 TOPOGRAPHICAL METRIC
UTUKOK RIVER A-1, AK 1984 LSM - 1st floor 1:63,360 N690000 W1590000 TOPOGRAPHICAL METRIC
CORONA, CA 1979 LSM - 1st floor 1:50,000 N334500 W1173000 TOPOGRAPHICAL METRIC
MT WILLIAMSON, CA 1994 LSM - 1st floor 1:25,000 N363730 W1181500 TOPOGRAPHICAL METRIC
TUCKERTON, NJ 1977 LSM - 1st floor 1:50,000 N393000 W0741500 TOPOGRAPHICAL METRIC
LITTLE LAKE, MI 1985 LSM - 1st floor 1:25,000 N461500 W0871500 TOPOGRAPHICAL METRIC
NORTH ADAMS, MA 1988 LSM - 1st floor 1:25,000 N423730 W0730000 TOPOGRAPHICAL METRIC
WEWAHITCHKA, FL 1984 LSM - 1st floor 1:50,000 N300000 W0850000 TOPOGRAPHICAL METRIC
DOGSKIN MTN, NV 1979 LSM - 1st floor 1:25,000 N395230 W1194500 TOPOGRAPHICAL METRIC
AU SABLE POINT, MI 1991 LSM - 1st floor 1:100,000 N463000 W0860000 TOPOGRAPHICAL METRIC
MANCHESTER, IL 1983 LSM - 1st floor 1:25,000 N393000 W0901500 TOPOGRAPHICAL METRIC
AZTEC, AZ 1992 LSM - 1st floor 1:50,000 N324500 W1131500 TOPOGRAPHICAL METRIC
PADUCAH, KY 1987 LSM - 1st floor 1:250,000 N370000 W0880000 TOPOGRAPHICAL METRIC
BOUNTIFUL, UT 1975 LSM - 1st floor 1:50,000 N404500 W1114500 TOPOGRAPHICAL METRIC
KAYENTA, AZ 1984 LSM - 1st floor 1:100,000 N363000 W1100000 TOPOGRAPHICAL METRIC
SEWARD D-6 NE, AK 1984 LSM - 1st floor 1:25,000 N605230 W1485230 TOPOGRAPHICAL METRIC
WILLIAMS, NC 1988 LSM - 1st floor 1:25,000 N350730 W0775230 TOPOGRAPHICAL METRIC
SKAGWAY A-2 NE, AK 1991 LSM - 1st floor 1:25,000 N590730 W1352230 TOPOGRAPHICAL METRIC
YAKUTAT B-5 NE, AK 1987 LSM - 1st floor 1:25,000 N592230 W1393000 TOPOGRAPHICAL METRIC
DELTA, CO 1980 LSM - 1st floor 1:100,000 N383000 W1080000 TOPOGRAPHICAL METRIC
MOCKINGBIRD GAP, NM 1992 LSM - 1st floor 1:50,000 N333000 W1061500 TOPOGRAPHICAL METRIC
VILLANOW, GA 1983 LSM - 1st floor 1:25,000 N343730 W0850000 TOPOGRAPHICAL METRIC
ONTONAGON NORTH, MI 1982 LSM - 1st floor 1:25,000 N465230 W0891500 TOPOGRAPHICAL METRIC
NOEL, MO 1982 LSM - 1st floor 1:50,000 N363000 W0941500 TOPOGRAPHICAL METRIC
WEST OF IDEAL, SD 1982 LSM - 1st floor 1:25,000 N433000 W1000000 TOPOGRAPHICAL METRIC
ACOMA PUEBLO, NM 1978 LSM - 1st floor 1:100,000 N343000 W1070000 TOPOGRAPHICAL METRIC
PELHAM, SC 1983 LSM - 1st floor 1:25,000 N344500 W0820730 TOPOGRAPHICAL METRIC
HIDDEN VALLEY RANCH, CO 1983 LSM - 1st floor 1:50,000 N373000 W1041500 TOPOGRAPHICAL METRIC
FLANAGAN NORTH, IL 1998 LSM - 1st floor 1:25,000 N405230 W0884500 TOPOGRAPHICAL METRIC
IRONSIDE MTN, CA 1998 LSM - 1st floor 1:25,000 N404500 W1232230 TOPOGRAPHICAL METRIC
EAST BAY, FL 1983 LSM - 1st floor 1:50,000 N294500 W0844500 TOPOGRAPHICAL METRIC
GASPORT, NY 1979 LSM - 1st floor 1:25,000 N430730 W0783000 TOPOGRAPHICAL METRIC
FLORALA, AL 1977 LSM - 1st floor 1:50,000 N310000 W0861500 TOPOGRAPHICAL METRIC
CARRINGTON, ND 1994 LSM - 1st floor 1:100,000 N470000 W0990000 TOPOGRAPHICAL METRIC
FAIRBURY, NE 1985 LSM - 1st floor 1:100,000 N400000 W0970000 TOPOGRAPHICAL METRIC
GROUSE CREEK, UT 1987 LSM - 1st floor 1:100,000 N413000 W1130000 TOPOGRAPHICAL METRIC
BROWN BUTTES, CA 1985 LSM - 1st floor 1:25,000 N343730 W1153730 TOPOGRAPHICAL METRIC
PLEASANTON, MI 1982 LSM - 1st floor 1:25,000 N442230 W0860000 TOPOGRAPHICAL METRIC
MACHIAS, ME 1994 LSM - 1st floor 1:100,000 N443000 W0670000 TOPOGRAPHICAL METRIC
CHARLOTTESVILLE, VA 1984 LSM - 1st floor 1:100,000 N380000 W0780000 TOPOGRAPHICAL METRIC
HAYFORK, CA 1982 LSM - 1st floor 1:100,000 N403000 W1230000 TOPOGRAPHICAL METRIC
CARP RIVER, MI 1980 LSM - 1st floor 1:25,000 N464500 W0894500 TOPOGRAPHICAL METRIC
RALPH, MI 1986 LSM - 1st floor 1:25,000 N460000 W0874500 TOPOGRAPHICAL METRIC
NEW ULM, MN 1991 LSM - 1st floor 1:100,000 N440000 W0940000 TOPOGRAPHICAL METRIC
GREAT POINT, MA 1991 LSM - 1st floor 1:25,000 N412000 W0695730 TOPOGRAPHICAL METRIC
REDIG, SD 1980 LSM - 1st floor 1:100,000 N450000 W1030000 TOPOGRAPHICAL METRIC
HATTON, MI 1983 LSM - 1st floor 1:25,000 N435230 W0844500 TOPOGRAPHICAL METRIC
SHELBY, NC 1984 LSM - 1st floor 1:50,000 N351500 W0813000 TOPOGRAPHICAL METRIC
OBERLIN, KS 1985 LSM - 1st floor 1:100,000 N393000 W1000000 TOPOGRAPHICAL METRIC
ALTAMONT, MO 1984 LSM - 1st floor 1:25,000 N395230 W0940000 TOPOGRAPHICAL METRIC
TABERNACLE HILL, UT 1982 LSM - 1st floor 1:50,000 N384500 W1123000 TOPOGRAPHICAL METRIC
BEMENT, IL 1998 LSM - 1st floor 1:25,000 N395230 W0883000 TOPOGRAPHICAL METRIC
OXFORD, MS 1990 LSM - 1st floor 1:100,000 N340000 W0890000 TOPOGRAPHICAL METRIC
ASHFIELD, MA 1984 LSM - 1st floor 1:25,000 N423000 W0724500 TOPOGRAPHICAL METRIC
BLUEWING SPRING, NV 1981 LSM - 1st floor 1:25,000 N400000 W1190000 TOPOGRAPHICAL METRIC
TITUSVILLE, FL 1979 LSM - 1st floor 1:100,000 N283000 W0800000 TOPOGRAPHICAL METRIC
TULELAKE, CA 1984 LSM - 1st floor 1:100,000 N413000 W1210000 TOPOGRAPHICAL METRIC
ROOSEVELT MINE, CA 1983 LSM - 1st floor 1:25,000 N333000 W1144500 TOPOGRAPHICAL METRIC
SCOTTS LAKE, MI 1983 LSM - 1st floor 1:25,000 N450000 W0850730 TOPOGRAPHICAL METRIC
KERN MOUNTAINS, NV 1981 LSM - 1st floor 1:50,000 N393000 W1140000 TOPOGRAPHICAL METRIC
SURVEY PASS D-3, AK 1986 LSM - 1st floor 1:63,360 N674500 W1540000 TOPOGRAPHICAL METRIC
LEHI, UT 1992 LSM - 1st floor 1:50,000 N401500 W1114500 TOPOGRAPHICAL METRIC
PETIT MANAN POINT, ME 1994 LSM - 1st floor 1:100,000 N440000 W0670000 TOPOGRAPHICAL METRIC
POKEGAMA LAKE, MN 1992 LSM - 1st floor 1:100,000 N470000 W0930000 TOPOGRAPHICAL METRIC
CLEVELAND, TN 1981 LSM - 1st floor 1:100,000 N350000 W0840000 TOPOGRAPHICAL METRIC
EDGEMOOR, SC 1982 LSM - 1st floor 1:25,000 N344500 W0810000 TOPOGRAPHICAL METRIC
FAIRBURY, IL 2001 LSM - 1st floor 1:25,000 N403730 W0883000 TOPOGRAPHICAL METRIC
KENAI A-4 NW, AK 1987 LSM - 1st floor 1:25,000 N600730 W1511840 TOPOGRAPHICAL METRIC
KINSMAN, IL 1983 LSM - 1st floor 1:25,000 N410730 W0883000 TOPOGRAPHICAL METRIC
MELSTRAND, MI 1983 LSM - 1st floor 1:25,000 N462230 W0862230 TOPOGRAPHICAL METRIC
SPRINGFIELD NORTH, MA 1975 LSM - 1st floor 1:25,000 N420730 W0723000 TOPOGRAPHICAL METRIC
GARRISON, ND 1979 LSM - 1st floor 1:100,000 N473000 W1010000 TOPOGRAPHICAL METRIC
SUMMIT LAKE, MI 1999 LSM - 1st floor 1:25,000 N463730 W0880000 TOPOGRAPHICAL METRIC
CORFU, NY 1984 LSM - 1st floor 1:25,000 N425230 W0781500 TOPOGRAPHICAL METRIC
TIRZAH, SC 1982 LSM - 1st floor 1:25,000 N345230 W0810730 TOPOGRAPHICAL METRIC
SMITH CREEK VALLEY, NV 1982 LSM - 1st floor 1:100,000 N390000 W1170000 TOPOGRAPHICAL METRIC
OCRACOKE, NC 1983 LSM - 1st floor 1:50,000 N350000 W0754500 TOPOGRAPHICAL METRIC
UDELL, MI 1987 LSM - 1st floor 1:25,000 N440730 W0860000 TOPOGRAPHICAL METRIC
STANLEY, ND 1982 LSM - 1st floor 1:100,000 N480000 W1020000 TOPOGRAPHICAL METRIC
PRINCESS ANNE, MD 1989 LSM - 1st floor 1:50,000 N380000 W0753000 TOPOGRAPHICAL METRIC
BUENA VISTA, VA 1986 LSM - 1st floor 1:100,000 N373000 W0790000 TOPOGRAPHICAL METRIC
WIBAUX, MT 1982 LSM - 1st floor 1:100,000 N463000 W1040000 TOPOGRAPHICAL METRIC
CINCINNATI EAST, OH 1979 LSM - 1st floor 1:50,000 N390000 W0841500 TOPOGRAPHICAL METRIC
DELLE, UT 1985 LSM - 1st floor 1:50,000 N404500 W1124500 TOPOGRAPHICAL METRIC
MORMON DAN BUTTE, NV 1982 LSM - 1st floor 1:25,000 N410000 W1180000 TOPOGRAPHICAL METRIC
VIRGINIA BEACH, VA 1990 LSM - 1st floor 1:100,000 N363000 W0750000 TOPOGRAPHICAL METRIC
TENINO, WA 1975 LSM - 1st floor 1:50,000 N464500 W1224500 TOPOGRAPHICAL METRIC
NEWBURY NECK, ME 1981 LSM - 1st floor 1:25,000 N442230 W0682230 TOPOGRAPHICAL METRIC
DEDRICK, CA 1998 LSM - 1st floor 1:25,000 N404500 W1230000 TOPOGRAPHICAL METRIC
ANTONITO, CO 1985 LSM - 1st floor 1:100,000 N370000 W1060000 TOPOGRAPHICAL METRIC
LORAN, IL 1986 LSM - 1st floor 1:25,000 N420730 W0895230 TOPOGRAPHICAL METRIC
EAST OF AZTEC MINES, CA 1983 LSM - 1st floor 1:25,000 N333000 W1150000 TOPOGRAPHICAL METRIC
BARNWELL, SC 1982 LSM - 1st floor 1:100,000 N330000 W0810000 TOPOGRAPHICAL METRIC
BETHUNE, SC 1980 LSM - 1st floor 1:50,000 N341500 W0801500 TOPOGRAPHICAL METRIC
CALEXICO, CA 1976 LSM - 1st floor 1:50,000 N323000 W1151500 TOPOGRAPHICAL METRIC
KINSLEY, KS 1985 LSM - 1st floor 1:100,000 N373000 W0990000 TOPOGRAPHICAL METRIC
WINTON, NC 1999 LSM - 1st floor 1:25,000 N362230 W0765230 TOPOGRAPHICAL METRIC
LAKE WINNIPESAUKEE, NH 1986 LSM - 1st floor 1:100,000 N433000 W0710000 TOPOGRAPHICAL METRIC
SODA LAKE NW, NV 1985 LSM - 1st floor 1:25,000 N393730 W1185230 TOPOGRAPHICAL METRIC
DAVIS DAM, AZ (CA DESERT DIST.) 1999 LSM - 1st floor 1:100,000 N350000 W1140000 TOPOGRAPHICAL METRIC
MELROSE, NM 1983 LSM - 1st floor 1:50,000 N341500 W1033000 TOPOGRAPHICAL METRIC
OBED, IL 1998 LSM - 1st floor 1:25,000 N393000 W0885230 TOPOGRAPHICAL METRIC
MURRAY, TX 1979 LSM - 1st floor 1:50,000 N330000 W0984500 TOPOGRAPHICAL METRIC
WAUCEDAH, MI 1986 LSM - 1st floor 1:25,000 N454500 W0873730 TOPOGRAPHICAL METRIC
PAGE MOUNTAIN, NY 1986 LSM - 1st floor 1:25,000 N433000 W0741500 TOPOGRAPHICAL METRIC
WHITE HORSE MOUNTAIN NW, NV 1982 LSM - 1st floor 1:25,000 N402230 W1142230 TOPOGRAPHICAL METRIC
HALLTOWN, MO 1989 LSM - 1st floor 1:50,000 N370000 W0933000 TOPOGRAPHICAL METRIC
JEFFERSON CITY, MO 1982 LSM - 1st floor 1:100,000 N383000 W0920000 TOPOGRAPHICAL METRIC
HURTSBORO, AL 1978 LSM - 1st floor 1:50,000 N320000 W0851500 TOPOGRAPHICAL METRIC
WINTER CAMP, ID 1984 LSM - 1st floor 1:50,000 N423000 W1153000 TOPOGRAPHICAL METRIC
HURON MOUNTAIN, MI 1985 LSM - 1st floor 1:25,000 N465230 W0874500 TOPOGRAPHICAL METRIC
FORT RILEY NE, KS 1992 LSM - 1st floor 1:25,000 N390730 W0964500 TOPOGRAPHICAL METRIC
JUNCTION WELL, NV 1982 LSM - 1st floor 1:25,000 N395230 W1151500 TOPOGRAPHICAL METRIC
SALT LAKE CITY, UT 1980 LSM - 1st floor 1:100,000 N403000 W1110000 TOPOGRAPHICAL METRIC
EMMITSBURG, MD 1988 LSM - 1st floor 1:50,000 N393000 W0771500 TOPOGRAPHICAL METRIC
GOOD HART, MI 1982 LSM - 1st floor 1:25,000 N453000 W0850000 TOPOGRAPHICAL METRIC